Home   Weather   Riyadh   Past weeks

Flag for Saudi Arabia Past Weather in Riyadh, Saudi Arabia — Yesterday and Last 2 Weeks

Now
77 °F

Clear.


Feels Like: 77 °F
Forecast: 76 / 96 °F
Wind: 2 mph from Southeast

Location: King Khaled International Airport

Current Time: Apr 28, 2017 at 3:42:55 am

Latest Report: Apr 28, 2017 at 3:00 am


Visibility: 4 mi

Pressure: 29.92 "Hg (27.96 "Hg at 590m altitude)

Humidity: 24%

Dew Point: 37 °F

Location of RiyadhLocation

Past Weather in Riyadh — Graph

°F

Riyadh Temperature Yesterday

Maximum temperature yesterday: 99 °F (at 4:00 pm)
Minimum temperature yesterday: 70 °F (at 5:00 am)
Average temperature yesterday: 86 °F

High & Low Weather Summary for the Past Weeks

 TemperatureHumidityPressure
High104 °F (Apr 25, 4:00 pm)38% (Apr 27, 5:00 am)30.12 "Hg (Apr 27, 5:00 am)
Low64 °F (Apr 22, 6:00 am)5% (Apr 21, 12:00 pm)29.83 "Hg (Apr 24, 2:00 pm)
Average84 °F14%29.97 "Hg
* Reported Apr 19 10:00 am — Apr 28 2:00 am, Riyadh, Weather by CustomWeather, © 2017

Note: Actual official high and low records may vary slightly from our data, if they occured in-between our weather recording intervals... More about our weather records

Advertising

Riyadh Weather History for the Previous 24 Hours

Scroll right to see more
 ConditionsComfort  
Time TempWeatherWind HumidityBarometerVisibility
2:00 am
Fri, Apr 28
81 °FDuststorm.No wind21%29.92 "Hg3 mi
1:00 am82 °FDuststorm.2 mph25%29.92 "Hg3 mi
12:00 am86 °FDuststorm.5 mph15%29.95 "Hg3 mi
11:00 pm
Thu, Apr 27
88 °FClear.9 mph13%29.98 "Hg5 mi
10:00 pm86 °FClear.3 mph13%29.95 "Hg5 mi
9:00 pm88 °FClear.5 mph16%29.95 "Hg4 mi
8:00 pm90 °FClear.3 mph11%29.92 "Hg4 mi
7:00 pm93 °FClear.6 mph11%29.89 "Hg4 mi
6:00 pm95 °FScattered clouds.7 mph11%29.89 "Hg4 mi
5:00 pm97 °FClear.9 mph10%29.89 "Hg4 mi
4:00 pm99 °FClear.7 mph10%29.89 "Hg4 mi
3:00 pm97 °FPartly sunny.7 mph11%29.92 "Hg4 mi
2:00 pm97 °FClear.9 mph12%29.92 "Hg4 mi
1:00 pm95 °FClear.12 mph11%29.95 "Hg5 mi
12:00 pm95 °FClear.12 mph11%29.98 "Hg5 mi
11:00 am91 °FClear.10 mph15%29.98 "Hg5 mi
10:00 am90 °FClear.9 mph17%30.01 "Hg5 mi
9:00 am88 °FClear.7 mph18%30.01 "Hg5 mi
8:00 am82 °FSunny.5 mph25%29.98 "Hg5 mi
7:00 am75 °FSunny.3 mph34%29.98 "Hg5 mi
6:00 am72 °FSunny.2 mph38%29.98 "Hg5 mi
5:00 am70 °FClear.No wind38%29.95 "Hg5 mi
4:00 am73 °FClear.6 mph33%29.95 "Hg5 mi
3:00 am73 °FClear.No wind33%29.92 "Hg10 mi
Weather by CustomWeather, © 2017

See weather overviewHow to use our weather pages